Location: Bakhuizen
(52.8696°N, 5.4575°E)
Time: 01:35:10
(UTC+00:00)

Cosmos 1833 - Pass Details

Date: 30 September 2021
Orbit: 834 x 864 km, 70.9° (Epoch: 26 October)

Event Time Altitude Azimuth Distance (km) Brightness Sun altitude
Rises 20:04:59 0° 315° (NW) 3,396 8.6 -25.1°
Reaches altitude 10° 20:09:11 10° 285° (WNW) 2,453 7.5 -25.7°
Maximum altitude 20:11:04 12° 265° (W) 2,325 7.1 -25.9°
Drops below altitude 10° 20:12:58 10° 245° (WSW) 2,446 7.0 -26.2°
Sets 20:17:09 0° 215° (SW) 3,375 7.3 -26.7°
